,,PA_Meas_PMT16A,,PR_Meas_QMR101_102,,RH_Meas_QMH101,,SR_Meas_QMS101,,TA_Meas_QMH101,,GenWind,,GenWind,
time,status,PA,status,PR,status,RH,status,SR,status,TA,status,DirAvg,status,SpdAvg,
2015-09-01, 07:16:04,VALID,917.778,VALID,0,VALID,98.4793,VALID,78.6469,VALID,18.1069,VALID,153,VALID,1.26992,
2015-09-01, 07:17:04,VALID,917.786,VALID,0,VALID,98.4869,VALID,81.9776,VALID,18.1069,VALID,151,VALID,1.1375,
2015-09-01, 07:18:04,VALID,917.801,VALID,0,VALID,98.525,VALID,84.2339,VALID,18.1069,VALID,165,VALID,1.2418,
2015-09-01, 07:19:04,VALID,917.823,VALID,0,VALID,98.5555,VALID,86.9199,VALID,18.1264,VALID,149,VALID,0.985156,
2015-09-01, 07:20:04,VALID,917.819,VALID,0,VALID,98.6775,VALID,89.1762,VALID,18.1459,VALID,168,VALID,0.801172,
2015-09-01, 07:21:04,VALID,917.828,VALID,0,VALID,98.6622,VALID,91.7547,VALID,18.1459,VALID,166,VALID,1.53125,
2015-09-01, 07:22:04,VALID,917.859,VALID,0,VALID,98.6394,VALID,94.978,VALID,18.1459,VALID,156,VALID,1.11523,
2015-09-01, 07:23:04,VALID,917.919,VALID,0,VALID,98.6013,VALID,97.9863,VALID,18.1654,VALID,169,VALID,1.45234,
2015-09-01, 07:24:04,VALID,917.889,VALID,0,VALID,98.5784,VALID,99.8128,VALID,18.1849,VALID,165,VALID,1.63359,
2015-09-01, 07:25:04,VALID,917.9,VALID,0,VALID,98.4412,VALID,100.995,VALID,18.2044,VALID,173,VALID,1.26953,
2015-09-01, 07:26:04,VALID,917.89,VALID,0,VALID,98.4488,VALID,101.747,VALID,18.2433,VALID,167,VALID,0.933594,
2015-09-01, 07:27:04,VALID,917.93,VALID,0,VALID,98.3497,VALID,104.648,VALID,18.2823,VALID,170,VALID,1.11719,
2015-09-01, 07:28:04,VALID,917.936,VALID,0,VALID,98.4183,VALID,108.086,VALID,18.3004,VALID,170,VALID,0.923828,
2015-09-01, 07:29:04,VALID,917.96,VALID,0,VALID,98.3497,VALID,111.631,VALID,18.3394,VALID,176,VALID,1.16523,
2015-09-01, 07:30:04,VALID,917.981,VALID,0,VALID,98.0829,VALID,111.846,VALID,18.3798,VALID,185,VALID,1.17813,
2015-09-01, 07:31:04,VALID,917.953,VALID,0,VALID,97.8542,VALID,111.846,VALID,18.4383,VALID,181,VALID,0.161328,
2015-09-01, 07:32:04,VALID,918.002,VALID,0,VALID,97.7017,VALID,113.995,VALID,18.4759,VALID,178,VALID,0,
2015-09-01, 07:33:04,VALID,918.028,VALID,0,VALID,97.0308,VALID,115.822,VALID,18.5358,VALID,176,VALID,0,
2015-09-01, 07:34:04,VALID,918.042,VALID,0,VALID,96.6497,VALID,115.929,VALID,18.6347,VALID,186,VALID,0,
2015-09-01, 07:35:04,VALID,918.051,VALID,0,VALID,96.299,VALID,119.367,VALID,18.6918,VALID,180,VALID,0,
2015-09-01, 07:36:04,VALID,918.043,VALID,0,VALID,95.9026,VALID,120.119,VALID,18.7488,VALID,175,VALID,0,
2015-09-01, 07:37:04,VALID,918.105,VALID,0,VALID,95.4375,VALID,123.772,VALID,18.8073,VALID,171,VALID,0,
2015-09-01, 07:38:04,VALID,918.101,VALID,0,VALID,95.7349,VALID,127.855,VALID,18.8644,VALID,175,VALID,0,
2015-09-01, 07:39:04,VALID,918.112,VALID,0,VALID,92.3119,VALID,130.111,VALID,18.9438,VALID,170,VALID,0,
2015-09-01, 07:40:04,VALID,918.148,VALID,0,VALID,91.3361,VALID,132.905,VALID,19.0232,VALID,179,VALID,0,
2015-09-01, 07:41:04,VALID,918.165,VALID,0,VALID,92.2586,VALID,138.921,VALID,19.0803,VALID,169,VALID,0,
2015-09-01, 07:42:04,VALID,918.199,VALID,0,VALID,91.298,VALID,139.351,VALID,19.1178,VALID,183,VALID,0,
2015-09-01, 07:43:04,VALID,918.207,VALID,0,VALID,90.2765,VALID,142.467,VALID,19.1973,VALID,190,VALID,0,
2015-09-01, 07:44:04,VALID,918.252,VALID,0,VALID,89.781,VALID,143.649,VALID,19.2782,VALID,182,VALID,0,
2015-09-01, 07:45:04,VALID,918.275,VALID,0,VALID,92.3272,VALID,143.434,VALID,19.3157,VALID,182,VALID,0,
2015-09-01, 07:46:04,VALID,918.247,VALID,0,VALID,92.2433,VALID,147.087,VALID,19.3533,VALID,182,VALID,0,
2015-09-01, 07:47:04,VALID,918.266,VALID,0,VALID,89.9868,VALID,148.376,VALID,19.3728,VALID,186,VALID,0,
2015-09-01, 07:48:04,VALID,918.24,VALID,0,VALID,91.6868,VALID,153.319,VALID,19.4493,VALID,186,VALID,0,
2015-09-01, 07:49:04,VALID,918.258,VALID,0,VALID,90.0402,VALID,157.079,VALID,19.5288,VALID,186,VALID,0,
2015-09-01, 07:50:04,VALID,918.306,VALID,0,VALID,88.485,VALID,157.831,VALID,19.6068,VALID,186,VALID,0,
2015-09-01, 07:51:04,VALID,918.311,VALID,0,VALID,88.2487,VALID,158.691,VALID,19.6638,VALID,184,VALID,0,
2015-09-01, 07:52:04,VALID,918.36,VALID,0,VALID,88.8128,VALID,160.302,VALID,19.6818,VALID,175,VALID,0,
2015-09-01, 07:53:04,VALID,918.307,VALID,0,VALID,88.1419,VALID,162.129,VALID,19.7238,VALID,169,VALID,0,
2015-09-01, 07:54:04,VALID,918.347,VALID,0,VALID,87.3339,VALID,165.244,VALID,19.7433,VALID,169,VALID,0,
2015-09-01, 07:55:04,VALID,918.34,VALID,0,VALID,87.5702,VALID,169.972,VALID,19.7433,VALID,164,VALID,0,
2015-09-01, 07:56:04,VALID,918.369,VALID,0,VALID,87.6617,VALID,174.27,VALID,19.7628,VALID,157,VALID,0,
2015-09-01, 07:57:04,VALID,918.373,VALID,0,VALID,87.9361,VALID,179.534,VALID,19.7628,VALID,157,VALID,0,
2015-09-01, 07:58:04,VALID,918.386,VALID,0,VALID,86.7926,VALID,180.609,VALID,19.7433,VALID,157,VALID,0,
2015-09-01, 07:59:04,VALID,918.381,VALID,0,VALID,86.9832,VALID,183.939,VALID,19.7238,VALID,157,VALID,0,
2015-09-01, 08:00:04,VALID,918.409,VALID,0,VALID,87.4025,VALID,192.32,VALID,19.7613,VALID,162,VALID,0,
2015-09-01, 08:01:04,VALID,918.409,VALID,0,VALID,88.3554,VALID,195.113,VALID,19.7793,VALID,157,VALID,0,
2015-09-01, 08:02:04,VALID,918.385,VALID,0,VALID,88.3097,VALID,205.213,VALID,19.8588,VALID,160,VALID,0,
2015-09-01, 08:03:04,VALID,918.429,VALID,0,VALID,87.1204,VALID,207.684,VALID,19.9173,VALID,186,VALID,0,
2015-09-01, 08:04:04,VALID,918.399,VALID,0,VALID,88.0962,VALID,211.337,VALID,19.9548,VALID,169,VALID,0,
2015-09-01, 08:05:04,VALID,918.435,VALID,0,VALID,88.3401,VALID,213.056,VALID,20.0343,VALID,180,VALID,0,
2015-09-01, 08:06:04,VALID,918.418,VALID,0,VALID,86.9984,VALID,215.849,VALID,20.0928,VALID,189,VALID,0,
2015-09-01, 08:07:04,VALID,918.417,VALID,0,VALID,87.2347,VALID,219.502,VALID,20.1108,VALID,177,VALID,0,
2015-09-01, 08:08:04,VALID,918.435,VALID,0,VALID,87.2729,VALID,227.345,VALID,20.1303,VALID,187,VALID,0,
2015-09-01, 08:09:04,VALID,918.444,VALID,0,VALID,86.1446,VALID,229.279,VALID,20.2098,VALID,188,VALID,0,
2015-09-01, 08:10:04,VALID,918.418,VALID,0,VALID,84.9858,VALID,234.222,VALID,20.2278,VALID,200,VALID,0,
2015-09-01, 08:11:04,VALID,918.436,VALID,0,VALID,85.8549,VALID,229.279,VALID,20.3058,VALID,206,VALID,0,
2015-09-01, 08:12:04,VALID,918.435,VALID,0,VALID,85.6491,VALID,235.726,VALID,20.3058,VALID,220,VALID,0,
2015-09-01, 08:13:04,VALID,918.445,VALID,0,VALID,85.9998,VALID,241.957,VALID,20.3448,VALID,205,VALID,0,
2015-09-01, 08:14:04,VALID,918.46,VALID,0,VALID,84.5894,VALID,239.379,VALID,20.3643,VALID,208,VALID,1.31484,
2015-09-01, 08:15:04,VALID,918.467,VALID,0,VALID,84.8715,VALID,248.511,VALID,20.4439,VALID,213,VALID,1.38398,
2015-09-01, 08:16:04,VALID,918.517,VALID,0,VALID,85.4966,VALID,247.222,VALID,20.4423,VALID,188,VALID,0,
2015-09-01, 08:17:04,VALID,918.47,VALID,0,VALID,84.6047,VALID,243.677,VALID,20.5024,VALID,207,VALID,0,
2015-09-01, 08:18:04,VALID,918.494,VALID,0,VALID,83.7966,VALID,239.271,VALID,20.4829,VALID,239,VALID,0,
2015-09-01, 08:19:04,VALID,918.523,VALID,0,VALID,84.193,VALID,242.387,VALID,20.5009,VALID,182,VALID,0,
2015-09-01, 08:20:04,VALID,918.545,VALID,0,VALID,83.8576,VALID,248.404,VALID,20.5204,VALID,187,VALID,0.202344,
2015-09-01, 08:21:04,VALID,918.529,VALID,0,VALID,84.0405,VALID,251.197,VALID,20.5609,VALID,193,VALID,0,
2015-09-01, 08:22:04,VALID,918.569,VALID,0,VALID,83.3087,VALID,263.875,VALID,20.6179,VALID,215,VALID,0,
2015-09-01, 08:23:04,VALID,918.563,VALID,0,VALID,84.4217,VALID,265.057,VALID,20.6764,VALID,205,VALID,0,
2015-09-01, 08:24:04,VALID,918.573,VALID,0,VALID,82.3329,VALID,269.14,VALID,20.7365,VALID,227,VALID,0,
2015-09-01, 08:25:04,VALID,918.566,VALID,0,VALID,81.8374,VALID,271.826,VALID,20.7918,VALID,185,VALID,0,
2015-09-01, 08:26:04,VALID,918.611,VALID,0,VALID,82.2262,VALID,271.504,VALID,20.8714,VALID,201,VALID,0,
2015-09-01, 08:27:04,VALID,918.587,VALID,0,VALID,81.8298,VALID,274.405,VALID,20.93,VALID,190,VALID,0,
2015-09-01, 08:28:04,VALID,918.577,VALID,0,VALID,81.2961,VALID,280.744,VALID,20.9479,VALID,210,VALID,0,
2015-09-01, 08:29:04,VALID,918.589,VALID,0,VALID,81.8069,VALID,290.091,VALID,20.969,VALID,200,VALID,0,
2015-09-01, 08:30:04,VALID,918.577,VALID,0,VALID,81.2427,VALID,289.017,VALID,21.047,VALID,211,VALID,0,
2015-09-01, 08:31:04,VALID,918.623,VALID,0,VALID,81.967,VALID,287.727,VALID,21.086,VALID,206,VALID,0,
2015-09-01, 08:32:04,VALID,918.64,VALID,0,VALID,80.9759,VALID,291.703,VALID,21.1055,VALID,229,VALID,0.028125,
2015-09-01, 08:33:04,VALID,918.652,VALID,0,VALID,80.8235,VALID,291.38,VALID,21.086,VALID,210,VALID,1.47266,
2015-09-01, 08:34:04,VALID,918.653,VALID,0,VALID,80.8844,VALID,288.909,VALID,21.0681,VALID,200,VALID,1.93359,
2015-09-01, 08:35:04,VALID,918.625,VALID,0,VALID,81.6163,VALID,292.347,VALID,21.086,VALID,219,VALID,1.34102,
2015-09-01, 08:36:04,VALID,918.637,VALID,0,VALID,80.9988,VALID,292.992,VALID,21.047,VALID,240,VALID,1.59453,
2015-09-01, 08:37:04,VALID,918.641,VALID,0,VALID,81.7078,VALID,291.38,VALID,21.008,VALID,230,VALID,0.276172,
2015-09-01, 08:38:04,VALID,918.65,VALID,0,VALID,82.7369,VALID,294.496,VALID,21.0665,VALID,184,VALID,0,
2015-09-01, 08:39:04,VALID,918.658,VALID,0,VALID,82.2033,VALID,300.62,VALID,21.125,VALID,225,VALID,0.00195313,
2015-09-01, 08:40:04,VALID,918.619,VALID,0,VALID,80.9302,VALID,302.984,VALID,21.164,VALID,211,VALID,0.802734,
2015-09-01, 08:41:04,VALID,918.626,VALID,0,VALID,81.2275,VALID,310.72,VALID,21.2031,VALID,206,VALID,0,
2015-09-01, 08:42:04,VALID,918.615,VALID,0,VALID,80.0001,VALID,310.397,VALID,21.2226,VALID,207,VALID,0.134766,
2015-09-01, 08:43:04,VALID,918.645,VALID,0,VALID,79.9544,VALID,318.563,VALID,21.221,VALID,214,VALID,0,
2015-09-01, 08:44:04,VALID,918.634,VALID,0,VALID,80.2822,VALID,307.282,VALID,21.3396,VALID,219,VALID,0,
2015-09-01, 08:45:04,VALID,918.667,VALID,0,VALID,80.7701,VALID,308.034,VALID,21.4372,VALID,177,VALID,0,
2015-09-01, 08:46:04,VALID,918.7,VALID,0,VALID,79.2149,VALID,313.191,VALID,21.4177,VALID,210,VALID,0,
2015-09-01, 08:47:04,VALID,918.685,VALID,0,VALID,79.7333,VALID,317.596,VALID,21.4177,VALID,209,VALID,0,
2015-09-01, 08:48:04,VALID,918.686,VALID,0,VALID,80.7548,VALID,324.043,VALID,21.4567,VALID,207,VALID,0,
2015-09-01, 08:49:04,VALID,918.72,VALID,0,VALID,80.8844,VALID,335.216,VALID,21.5721,VALID,182,VALID,0,
2015-09-01, 08:50:04,VALID,918.719,VALID,0,VALID,78.9633,VALID,344.779,VALID,21.6696,VALID,177,VALID,0,
2015-09-01, 08:51:04,VALID,918.725,VALID,0,VALID,78.8795,VALID,350.366,VALID,21.7477,VALID,165,VALID,0,
2015-09-01, 08:52:04,VALID,918.722,VALID,0,VALID,78.9405,VALID,358.101,VALID,21.8647,VALID,149,VALID,0,
2015-09-01, 08:53:04,VALID,918.697,VALID,0,VALID,78.0104,VALID,371.639,VALID,21.9818,VALID,147,VALID,0,
2015-09-01, 08:54:04,VALID,918.698,VALID,0,VALID,77.7665,VALID,363.151,VALID,22.0794,VALID,147,VALID,0,
2015-09-01, 08:55:04,VALID,918.717,VALID,0,VALID,78.7575,VALID,366.374,VALID,22.1769,VALID,152,VALID,0,
2015-09-01, 08:56:04,VALID,918.674,VALID,0,VALID,77.7283,VALID,372.069,VALID,22.2745,VALID,123,VALID,0,
2015-09-01, 08:57:04,VALID,918.704,VALID,0,VALID,77.3777,VALID,373.788,VALID,22.4111,VALID,101,VALID,0,
2015-09-01, 08:58:04,VALID,918.701,VALID,0,VALID,78.0409,VALID,383.565,VALID,22.5672,VALID,31,VALID,0,
2015-09-01, 08:59:04,VALID,918.708,VALID,0,VALID,76.5162,VALID,381.416,VALID,22.7216,VALID,71,VALID,0,
2015-09-01, 09:00:04,VALID,918.691,VALID,0,VALID,74.5723,VALID,389.582,VALID,22.8014,VALID,115,VALID,0.577344,
2015-09-01, 09:01:04,VALID,918.677,VALID,0,VALID,74.1072,VALID,396.888,VALID,22.7233,VALID,82,VALID,2.94414,
2015-09-01, 09:02:04,VALID,918.681,VALID,0,VALID,74.5036,VALID,403.012,VALID,22.6452,VALID,102,VALID,0.00585938,
2015-09-01, 09:03:04,VALID,918.658,VALID,0,VALID,75.2507,VALID,407.632,VALID,22.6045,VALID,98,VALID,0.939844,
2015-09-01, 09:04:04,VALID,918.668,VALID,0,VALID,76.6382,VALID,401.293,VALID,22.5655,VALID,67,VALID,0.440234,
2015-09-01, 09:05:04,VALID,918.695,VALID,0,VALID,76.8821,VALID,405.268,VALID,22.585,VALID,34,VALID,0.953125,
2015-09-01, 09:06:04,VALID,918.678,VALID,0,VALID,75.792,VALID,406.128,VALID,22.663,VALID,79,VALID,0.847656,
2015-09-01, 09:07:04,VALID,918.689,VALID,0,VALID,75.5557,VALID,410.425,VALID,22.6825,VALID,90,VALID,0.298438,
2015-09-01, 09:08:04,VALID,918.677,VALID,0,VALID,77.4768,VALID,417.624,VALID,22.7996,VALID,94,VALID,0,
2015-09-01, 09:09:04,VALID,918.667,VALID,0,VALID,77.4692,VALID,414.078,VALID,22.9948,VALID,35,VALID,0,
2015-09-01, 09:10:04,VALID,918.696,VALID,0,VALID,75.2279,VALID,416.657,VALID,23.0143,VALID,103,VALID,0,
2015-09-01, 09:11:04,VALID,918.711,VALID,0,VALID,76.318,VALID,421.599,VALID,23.0338,VALID,99,VALID,0,
2015-09-01, 09:12:04,VALID,918.692,VALID,0,VALID,76.5925,VALID,429.872,VALID,23.1704,VALID,105,VALID,0,
2015-09-01, 09:13:04,VALID,918.707,VALID,0,VALID,74.4503,VALID,426.971,VALID,23.3656,VALID,105,VALID,0,
2015-09-01, 09:14:04,VALID,918.706,VALID,0,VALID,73.3982,VALID,421.707,VALID,23.4241,VALID,122,VALID,0,
2015-09-01, 09:15:04,VALID,918.682,VALID,0,VALID,72.674,VALID,422.781,VALID,23.4437,VALID,120,VALID,0.0652344,
2015-09-01, 09:16:04,VALID,918.706,VALID,0,VALID,73.5507,VALID,436.963,VALID,23.4046,VALID,111,VALID,0,
2015-09-01, 09:17:04,VALID,918.65,VALID,0,VALID,72.674,VALID,442.335,VALID,23.5412,VALID,29,VALID,1.33906,
2015-09-01, 09:18:04,VALID,918.627,VALID,0,VALID,73.1695,VALID,458.237,VALID,23.6566,VALID,97,VALID,0,
2015-09-01, 09:19:04,VALID,918.646,VALID,0,VALID,70.8139,VALID,472.741,VALID,23.7737,VALID,112,VALID,0,
2015-09-01, 09:20:04,VALID,918.629,VALID,0,VALID,71.4695,VALID,484.022,VALID,23.8517,VALID,343,VALID,0.793359,
2015-09-01, 09:21:04,VALID,918.623,VALID,0,VALID,70.6614,VALID,487.783,VALID,23.8908,VALID,106,VALID,0.00585938,
2015-09-01, 09:22:04,VALID,918.611,VALID,0,VALID,71.6449,VALID,486.601,VALID,24.0079,VALID,170,VALID,0.333203,
2015-09-01, 09:23:04,VALID,918.65,VALID,0,VALID,70.0821,VALID,497.453,VALID,24.0079,VALID,189,VALID,1.36211,
2015-09-01, 09:24:04,VALID,918.654,VALID,0,VALID,70.0668,VALID,475.857,VALID,23.9512,VALID,180,VALID,0.0140625,
2015-09-01, 09:25:04,VALID,918.635,VALID,0,VALID,70.8978,VALID,501.32,VALID,24.1269,VALID,179,VALID,0,
2015-09-01, 09:26:04,VALID,918.672,VALID,0,VALID,71.2408,VALID,492.403,VALID,24.2421,VALID,185,VALID,0.0855469,
2015-09-01, 09:27:04,VALID,918.661,VALID,0,VALID,68.9614,VALID,494.014,VALID,24.2245,VALID,181,VALID,1.39492,
2015-09-01, 09:28:04,VALID,918.687,VALID,0,VALID,70.0897,VALID,504.329,VALID,24.1641,VALID,173,VALID,0.101563,
2015-09-01, 09:29:04,VALID,918.681,VALID,0,VALID,71.3552,VALID,494.767,VALID,24.0683,VALID,155,VALID,0,
2015-09-01, 09:30:04,VALID,918.657,VALID,0,VALID,71.744,VALID,501.428,VALID,24.0274,VALID,190,VALID,0,
2015-09-01, 09:31:04,VALID,918.672,VALID,0,VALID,69.9372,VALID,517.329,VALID,23.9707,VALID,219,VALID,0,
2015-09-01, 09:32:04,VALID,918.694,VALID,0,VALID,71.4771,VALID,513.569,VALID,24.0292,VALID,245,VALID,0,
2015-09-01, 09:33:04,VALID,918.716,VALID,0,VALID,72.7274,VALID,516.577,VALID,24.0097,VALID,237,VALID,0,
2015-09-01, 09:34:04,VALID,918.732,VALID,0,VALID,72.3157,VALID,515.073,VALID,24.0683,VALID,246,VALID,0,
2015-09-01, 09:35:04,VALID,918.72,VALID,0,VALID,73.5126,VALID,511.205,VALID,24.1854,VALID,222,VALID,0,
2015-09-01, 09:36:04,VALID,918.716,VALID,0,VALID,73.566,VALID,522.809,VALID,24.3593,VALID,212,VALID,0,
2015-09-01, 09:37:04,VALID,918.72,VALID,0,VALID,71.0045,VALID,510.453,VALID,24.4959,VALID,212,VALID,0,
2015-09-01, 09:38:04,VALID,918.713,VALID,0,VALID,69.8229,VALID,506.585,VALID,24.654,VALID,228,VALID,0,
2015-09-01, 09:39:04,VALID,918.772,VALID,0,VALID,68.3592,VALID,484.13,VALID,24.6326,VALID,192,VALID,0,
2015-09-01, 09:40:04,VALID,918.776,VALID,0,VALID,69.739,VALID,489.824,VALID,24.5917,VALID,171,VALID,0,
2015-09-01, 09:41:04,VALID,918.766,VALID,0,VALID,68.626,VALID,505.833,VALID,24.6131,VALID,161,VALID,0.0460938,
2015-09-01, 09:42:04,VALID,918.772,VALID,0,VALID,67.4596,VALID,512.602,VALID,24.574,VALID,148,VALID,0,
2015-09-01, 09:43:04,VALID,918.701,VALID,0,VALID,68.3668,VALID,509.271,VALID,24.5526,VALID,192,VALID,0,
2015-09-01, 09:44:04,VALID,918.723,VALID,0,VALID,71.0045,VALID,510.775,VALID,24.6912,VALID,148,VALID,0,
2015-09-01, 09:45:04,VALID,918.71,VALID,0,VALID,65.3632,VALID,527.429,VALID,24.7674,VALID,117,VALID,0.344531,
2015-09-01, 09:46:04,VALID,918.687,VALID,0,VALID,67.1699,VALID,521.949,VALID,24.8297,VALID,67,VALID,0.709766,
2015-09-01, 09:47:04,VALID,918.706,VALID,0,VALID,66.6744,VALID,518.081,VALID,24.8102,VALID,103,VALID,0,
2015-09-01, 09:48:04,VALID,918.707,VALID,0,VALID,67.6883,VALID,525.172,VALID,24.9255,VALID,96,VALID,0,
2015-09-01, 09:49:04,VALID,918.717,VALID,0,VALID,65.165,VALID,520.875,VALID,25.1031,VALID,171,VALID,1.60781,
2015-09-01, 09:50:04,VALID,918.704,VALID,0,VALID,66.095,VALID,523.561,VALID,24.9645,VALID,177,VALID,0,
2015-09-01, 09:51:04,VALID,918.71,VALID,0,VALID,65.8739,VALID,508.949,VALID,25.1226,VALID,58,VALID,0,
2015-09-01, 09:52:04,VALID,918.713,VALID,0,VALID,66.2094,VALID,540.644,VALID,25.0817,VALID,59,VALID,0.696875,
2015-09-01, 09:53:04,VALID,918.706,VALID,0,VALID,67.5511,VALID,554.934,VALID,25.0817,VALID,15,VALID,0.517578,
2015-09-01, 09:54:04,VALID,918.723,VALID,0,VALID,67.1166,VALID,566.645,VALID,25.2965,VALID,44,VALID,0.00273437,
2015-09-01, 09:55:04,VALID,918.702,VALID,0,VALID,63.5717,VALID,573.091,VALID,25.4351,VALID,65,VALID,1.10625,
2015-09-01, 09:56:04,VALID,918.671,VALID,0,VALID,64.5017,VALID,538.602,VALID,25.2965,VALID,360,VALID,0.872656,
2015-09-01, 09:57:04,VALID,918.697,VALID,0,VALID,63.5031,VALID,551.818,VALID,25.3355,VALID,62,VALID,0.640625,
2015-09-01, 09:58:04,VALID,918.715,VALID,0,VALID,65.2717,VALID,550.099,VALID,25.1402,VALID,108,VALID,0.120703,
2015-09-01, 09:59:04,VALID,918.724,VALID,0,VALID,66.5905,VALID,542.363,VALID,25.1793,VALID,146,VALID,0.00429688,
2015-09-01, 10:00:04,VALID,918.752,VALID,0,VALID,65.0125,VALID,537.958,VALID,25.1598,VALID,134,VALID,0.444922,
2015-09-01, 10:01:04,VALID,918.722,VALID,0,VALID,63.7699,VALID,558.801,VALID,25.0017,VALID,70,VALID,1.38672,
2015-09-01, 10:02:04,VALID,918.701,VALID,0,VALID,62.3138,VALID,549.024,VALID,24.9645,VALID,165,VALID,0.130078,
2015-09-01, 10:03:04,VALID,918.717,VALID,0,VALID,63.343,VALID,543.115,VALID,24.9236,VALID,119,VALID,1.66172,
2015-09-01, 10:04:04,VALID,918.734,VALID,0,VALID,65.5995,VALID,534.09,VALID,24.8845,VALID,138,VALID,1.96367,
2015-09-01, 10:05:04,VALID,918.709,VALID,0,VALID,65.3022,VALID,530.115,VALID,24.865,VALID,117,VALID,2.14766,
2015-09-01, 10:06:04,VALID,918.736,VALID,0,VALID,64.9058,VALID,537.313,VALID,24.7869,VALID,94,VALID,1.93008,
2015-09-01, 10:07:04,VALID,918.712,VALID,0,VALID,66.3618,VALID,551.388,VALID,24.8259,VALID,58,VALID,0,
2015-09-01, 10:08:04,VALID,918.689,VALID,0,VALID,64.799,VALID,555.578,VALID,25.0212,VALID,148,VALID,0.476172,
2015-09-01, 10:09:04,VALID,918.759,VALID,0,VALID,68.3363,VALID,568.471,VALID,25.1383,VALID,104,VALID,1.28242,
2015-09-01, 10:10:04,VALID,918.735,VALID,0,VALID,64.9972,VALID,566.752,VALID,25.2164,VALID,43,VALID,2.51133,
2015-09-01, 10:11:04,VALID,918.71,VALID,0,VALID,62.8169,VALID,575.025,VALID,25.2555,VALID,173,VALID,1.11836,
2015-09-01, 10:12:04,VALID,918.708,VALID,0,VALID,63.038,VALID,572.017,VALID,25.1774,VALID,158,VALID,2.39961,
2015-09-01, 10:13:04,VALID,918.666,VALID,0,VALID,60.8654,VALID,523.883,VALID,25.1598,VALID,74,VALID,3.40313,
2015-09-01, 10:14:04,VALID,918.708,VALID,0,VALID,62.1766,VALID,521.304,VALID,24.9236,VALID,162,VALID,2.27734,
2015-09-01, 10:15:04,VALID,918.706,VALID,0,VALID,63.5869,VALID,530.867,VALID,24.904,VALID,123,VALID,0.0148437,
2015-09-01, 10:16:04,VALID,918.754,VALID,0,VALID,64.3111,VALID,537.958,VALID,25.1383,VALID,148,VALID,0,
2015-09-01, 10:17:04,VALID,918.706,VALID,0,VALID,64.395,VALID,544.512,VALID,25.1383,VALID,105,VALID,0.829297,
2015-09-01, 10:18:04,VALID,918.725,VALID,0,VALID,67.978,VALID,553.644,VALID,25.0993,VALID,134,VALID,1.65703,
2015-09-01, 10:19:04,VALID,918.708,VALID,0,VALID,64.1358,VALID,543.437,VALID,25.1969,VALID,169,VALID,0.740234,
2015-09-01, 10:20:04,VALID,918.753,VALID,0,VALID,63.038,VALID,519.263,VALID,25.3141,VALID,149,VALID,1.20742,
2015-09-01, 10:21:04,VALID,918.732,VALID,0,VALID,63.7851,VALID,553,VALID,25.3922,VALID,128,VALID,0,
2015-09-01, 10:22:04,VALID,918.724,VALID,0,VALID,62.0394,VALID,588.563,VALID,25.4331,VALID,92,VALID,1.05352,
2015-09-01, 10:23:04,VALID,918.722,VALID,0,VALID,64.8448,VALID,619.935,VALID,25.4117,VALID,133,VALID,0.33125,
2015-09-01, 10:24:04,VALID,918.718,VALID,0,VALID,64.9286,VALID,590.711,VALID,25.5113,VALID,152,VALID,0.823047,
2015-09-01, 10:25:04,VALID,918.75,VALID,0,VALID,65.1497,VALID,600.703,VALID,25.646,VALID,74,VALID,2.23242,
2015-09-01, 10:26:04,VALID,918.723,VALID,0,VALID,61.7649,VALID,592.538,VALID,25.4703,VALID,88,VALID,2.41758,
2015-09-01, 10:27:04,VALID,918.7,VALID,0,VALID,59.9887,VALID,617.679,VALID,25.2965,VALID,80,VALID,3.39883,
2015-09-01, 10:28:04,VALID,918.675,VALID,0,VALID,61.7649,VALID,621.225,VALID,25.236,VALID,121,VALID,0.5875,
2015-09-01, 10:29:04,VALID,918.703,VALID,0,VALID,64.8981,VALID,597.158,VALID,25.2555,VALID,110,VALID,1.1957,
2015-09-01, 10:30:04,VALID,918.759,VALID,0,VALID,63.7394,VALID,571.479,VALID,25.3336,VALID,95,VALID,1.76563,
2015-09-01, 10:31:04,VALID,918.737,VALID,0,VALID,62.6874,VALID,542.363,VALID,25.4507,VALID,75,VALID,1.61523,
2015-09-01, 10:32:04,VALID,918.737,VALID,0,VALID,59.5236,VALID,543.437,VALID,25.275,VALID,104,VALID,0.738281,
2015-09-01, 10:33:04,VALID,918.695,VALID,0,VALID,62.9542,VALID,566,VALID,25.2555,VALID,153,VALID,0.936719,
2015-09-01, 10:34:04,VALID,918.671,VALID,0,VALID,60.042,VALID,601.348,VALID,25.2555,VALID,58,VALID,1.00352,
2015-09-01, 10:35:04,VALID,918.666,VALID,0,VALID,63.4039,VALID,661.73,VALID,25.3336,VALID,48,VALID,0,
2015-09-01, 10:36:04,VALID,918.696,VALID,0,VALID,60.2784,VALID,648.515,VALID,25.5503,VALID,90,VALID,2.03672,
2015-09-01, 10:37:04,VALID,918.599,VALID,0,VALID,62.4129,VALID,678.061,VALID,25.5874,VALID,68,VALID,1.16797,
2015-09-01, 10:38:04,VALID,918.675,VALID,0,VALID,62.1995,VALID,670.325,VALID,25.6655,VALID,92,VALID,1.7207,
2015-09-01, 10:39:04,VALID,918.557,VALID,0,VALID,59.7218,VALID,651.093,VALID,25.6265,VALID,38,VALID,3.45586,
2015-09-01, 10:40:04,VALID,918.565,VALID,0,VALID,61.0178,VALID,648.945,VALID,25.6265,VALID,64,VALID,2.04063,
2015-09-01, 10:41:04,VALID,918.602,VALID,0,VALID,61.9707,VALID,652.383,VALID,25.607,VALID,141,VALID,0,
2015-09-01, 10:42:04,VALID,918.606,VALID,0,VALID,60.6367,VALID,648.192,VALID,25.8413,VALID,45,VALID,0.833594,
2015-09-01, 10:43:04,VALID,918.586,VALID,0,VALID,60.3851,VALID,639.597,VALID,25.8999,VALID,54,VALID,1.41484,
2015-09-01, 10:44:04,VALID,918.582,VALID,0,VALID,60.164,VALID,652.705,VALID,25.8999,VALID,91,VALID,1.10469,
2015-09-01, 10:45:04,VALID,918.611,VALID,0,VALID,60.3012,VALID,664.631,VALID,26.0366,VALID,32,VALID,2.25742,
2015-09-01, 10:46:04,VALID,918.595,VALID,0,VALID,58.3649,VALID,661.838,VALID,26.0952,VALID,58,VALID,1.26992,
2015-09-01, 10:47:04,VALID,918.59,VALID,0,VALID,58.3496,VALID,641.209,VALID,26.0366,VALID,60,VALID,0.962891,
2015-09-01, 10:48:04,VALID,918.595,VALID,0,VALID,58.6469,VALID,647.87,VALID,26.0366,VALID,121,VALID,1.85977,
2015-09-01, 10:49:04,VALID,918.572,VALID,0,VALID,57.4043,VALID,628.638,VALID,25.9389,VALID,101,VALID,0.925781,
2015-09-01, 10:50:04,VALID,918.545,VALID,0,VALID,59.2492,VALID,628.961,VALID,25.937,VALID,158,VALID,0.355078,
2015-09-01, 10:51:04,VALID,918.54,VALID,0,VALID,60.3927,VALID,638.738,VALID,26.1127,VALID,100,VALID,0,
2015-09-01, 10:52:04,VALID,918.524,VALID,0,VALID,59.4169,VALID,658.722,VALID,26.3471,VALID,115,VALID,0.646484,
2015-09-01, 10:53:04,VALID,918.509,VALID,0,VALID,58.4716,VALID,658.077,VALID,26.3862,VALID,63,VALID,0.620703,
2015-09-01, 10:54:04,VALID,918.503,VALID,0,VALID,60.3927,VALID,645.399,VALID,26.4643,VALID,52,VALID,0.323828,
2015-09-01, 10:55:04,VALID,918.505,VALID,0,VALID,56.6267,VALID,660.118,VALID,26.4663,VALID,146,VALID,0.0417969,
2015-09-01, 10:56:04,VALID,918.547,VALID,0,VALID,57.046,VALID,666.35,VALID,26.3882,VALID,131,VALID,1.98906,